SL-16 R/B

Satellite information

Favourite Embed

Satellite Type and Status

ROCKET BODYIN ORBIT

Key statistics

Satellite SL-16 R/B at a glance.

Uptime

11204

Days in orbit

Revolutions

≈ 14.8

Per day

Orbit

SSO

Sun Synchronous Orbit

Inclination

97.7

Latest

Satellite identification and parameters

Extended collection of information and parameters for SL-16 R/B.

Object identification

Identified? True

Debris? False

Object name: SL-16 R/B

International designator: 1994-074B

Object number (NORAD): 23343

Object ID (CCSDS): 23343

Country: COMMONWEALTH OF INDEPENDENT STATES (CIS)

Current information (Y/N): Y

RCS size: LARGE

Orbital parameters

Period: 97.359 minutes

Inclination: 97.7379 deg

SMA: 7010.423 km

Apoapsis: 636.051 km

Periapsis: 628.526 km

RAAN: 224.2581 deg

Eccentricy: 0.0005367

Argument of periapsis: 306.2093 deg

Mean anomaly: 227.2075 deg

Mean motion: 14.79062148 rev/day

Mean motion (dot): 0.00000322 rev/day2

B* drag term: 0.000050205 1/REarth

Two-line elements (TLE)

Creation date: July 8, 2025, 2:27 a.m.

Reference frame: TEME

Reference center: EARTH

Epoch: July 7, 2025, 9 p.m. UTC

TLE line 0: 0 SL-16 R/B

TLE line 1: 1 23343U 94074B 25188.87500470 .00000322 00000-0 50205-4 0 9997

TLE line 2: 2 23343 97.7379 224.2581 0005367 306.2093 227.2075 14.79062148651051

Live tracking on map

Real-time ground track for satellite SL-16 R/B.

In-orbit conjunctions

A list of the most updated potential collisions computed for object SL-16 R/B.

Target Orbit TCA Probability of collision Miss distance Type
IRIDIUM 33 DEB LEO 2025-06-15 01:27:51 0.0001709265 138.0 (m) DEBRIS
CZ-6A DEB LEO 2025-04-15 09:32:38 0.0008157465 135.0 (m) DEBRIS
COSMOS 397 DEB * LEO 2024-06-24 06:26:08 0.0001772897 118.0 (m) DEBRIS

Associated space launch

Resurs-O1 N3 or Resurs-O1 1 is the third earth observation satellite in the Russian Resurs-O1 program.

SL-16 R/B was lifted into orbit during the mission ‘Zenit-2 | Resurs-O1’, on board a Zenit-2 space rocket.

The launch took place on Nov. 4, 1994, 5:47 a.m. from 45/1.

For more information about the launch, click the button.

Launch to space Zenit-2 | Resurs-O1
Zenit-2 | Resurs-O1

Agency: N/A

Status: Launch Successful

Launch date: Nov. 4, 1994, 5:47 a.m. UTC

Rocket: Zenit-2

Launch pad: 45/1

Location: Baikonur Cosmodrome, Republic of Kazakhstan

...

Latest news about this satellite

There are no fresh news available about this satellite. Check back as we update our databases every day.


Newsletter sign-up

Weekly statistics, charts and insights to help you stay on top of the space industry.